Regional Weather Roundup
Issued by NWS

Home | Current Version | Previous Version | Graphics & Text | Print | Product List | Glossary On
Versions: 1 2 3 4 5 6 7 8 9 10 11 12 13 14 15 16 17 18 19 20 21 22 23 24 25 26 27 28 29 30 31 32 33 34 35 36 37 38 39 40 41 42 43 44 45 46 47 48 49 50
000
ASUS43 KLSX 181459
RWRMO

WEATHER SUMMARY FOR MISSOURI
NATIONAL WEATHER SERVICE SPRINGFIELD MO
1000 AM CDT SAT APR 18 2015

NOTE: "FAIR" INDICATES FEW OR NO CLOUDS BELOW 12,000 FEET WITH NO
       SIGNIFICANT WEATHER AND/OR OBSTRUCTIONS TO VISIBILITY.
       CURRENT SKY AND/OR WEATHER CONDITIONS ARE NOT AVAILABLE FOR
       CHILLICOTHE AND FARMINGTON.

MOZ001>031-035>038-043-044-053-054-181600-
...NORTHERN AND WESTERN MISSOURI...

CITY           SKY/WX    TMP DP  RH WIND       PRES   REMARKS
KANSAS CTY INT LGT RAIN  62  59  90 SW23G32   29.91R
KANSAS C DTWN  CLOUDY    64  57  78 S15       29.94R THUNDER
LEE`S SUMMIT   TSTM      60  57  89 SW20G41   29.94R FOG
ST JOSEPH      LGT RAIN  64  57  78 CALM      29.89F
CHILLICOTHE      N/A     69  61  75 SE7       29.93F
KIRKSVILLE     TSTM      65  56  72 SE20G28   29.98R

$$
MOZ066>068-077>081-088>096-101>105-181600-
...SOUTHWEST MISSOURI...

CITY           SKY/WX    TMP DP  RH WIND       PRES   REMARKS
SPRINGFIELD    LGT RAIN  62  59  90 SE9       29.96R
JOPLIN         TSTM      59  59 100 E7        29.99R FOG

$$
MOZ032>034-039>042-045>050-055>058-069>072-181600-
...CENTRAL MISSOURI...

CITY           SKY/WX    TMP DP  RH WIND       PRES   REMARKS
COLUMBIA       PTSUNNY   68  62  81 SE7       29.97R
JEFFERSON CITY PTSUNNY   69  61  75 SE9       29.97R
ROLLA          PTSUNNY   65  61  87 S7        29.98R
SEDALIA        CLOUDY    71  61  70 S9        29.95R
OSAGE BEACH    CLOUDY    66  59  77 SE10G16   29.97S

$$
MOZ051-052-059>065-181600-
...EAST CENTRAL MISSOURI...

CITY           SKY/WX    TMP DP  RH WIND       PRES   REMARKS
ST LOUIS INTL  CLOUDY    70  60  70 E8        29.99F HAZE
SPIRIT OF STL  CLOUDY    70  60  70 CALM      29.98S
ST CHARLES     PTSUNNY   69  60  73 E7        29.98F

$$
MOZ072>076-082>087-097>100-106>115-181600-
...SOUTH CENTRAL AND SOUTHEAST MISSOURI...

CITY           SKY/WX    TMP DP  RH WIND       PRES   REMARKS
CAPE GIRARDEAU CLOUDY    69  64  84 E8        29.99S
FARMINGTON     CLOUDY    66  63  88 E6        30.04R
POPLAR BLUFF   PTSUNNY   68  62  81 SE3       29.99R
WEST PLAINS    CLOUDY    63  60  90 SE8       30.01R

$$


USA.gov is the U.S. government's official web portal to all federal, state and local government web resources and services.